User: anonymous   Login
Location: Unspecified
(0.0000°N, 0.0000°E)
Time: 20:16:17
(UTC+00:00)
Language:

TBA - TO BE ASSIGNED - Orbit

View from above orbital plane
View from above orbital plane
View from above satellite
View from above satellite

Ground track
Ground track

The orbit is defined by the following mean orbital elements,

1 67544U          26145.43212911 +.00000000 +00000-0 +99479-3 0 00001
2 67544  97.2858  32.4637 0000312  97.4936 262.6342 15.33461381    06
Epoch (UTC): 25 May 2026 10:22:15
Eccentricity: 0.0000312
inclination: 97.2858°
perigee height: 465 km
apogee height: 466 km
right ascension of ascending node: 32.4637°
argument of perigee: 97.4936°
revolutions per day: 15.33461381
mean anomaly at epoch: 262.6342°

The dashed part of the orbit path shows where the satellite is in the earth's shadow,  

DLR